| time (UTC) | temp C | wind direction | speed KPH | gust KPH | rain 1hr cm | rain 24hr cm | rain mn cm | humidity % | barometer mb |
| 20260504024642 | 16 | 0 | 1.6 | 4.8 | 0.00 | 0.03 | 0.03 | 56 | 1006.0 |
| 20260504024141 | 16 | 80 | 1.6 | 6.4 | 0.00 | 0.03 | 0.03 | 55 | 1006.0 |
| 20260504023641 | 16 | 0 | 1.6 | 6.4 | 0.00 | 0.03 | 0.03 | 55 | 1005.9 |
| 20260504023138 | 16 | 80 | 1.6 | 4.8 | 0.00 | 0.03 | 0.03 | 55 | 1005.9 |
| 20260504022643 | 16 | 0 | 1.6 | 4.8 | 0.00 | 0.03 | 0.03 | 54 | 1005.9 |
| 20260504022139 | 17 | 106 | 1.6 | 4.8 | 0.00 | 0.03 | 0.03 | 54 | 1005.9 |
| 20260504021638 | 17 | 117 | 1.6 | 6.4 | 0.00 | 0.03 | 0.03 | 53 | 1005.9 |
| 20260504021137 | 17 | 0 | 1.6 | 6.4 | 0.00 | 0.03 | 0.03 | 53 | 1005.9 |
| 20260504020639 | 17 | 79 | 1.6 | 4.8 | 0.00 | 0.03 | 0.03 | 53 | 1005.9 |
| 20260504020132 | 17 | 90 | 1.6 | 4.8 | 0.00 | 0.03 | 0.03 | 52 | 1005.9 |
| 20260504015903 | 17 | 0 | 1.6 | 9.7 | 0.00 | 0.03 | 0.03 | 52 | 1005.8 |
| 20260504015132 | 17 | 92 | 1.6 | 9.7 | 0.00 | 0.03 | 0.03 | 51 | 1005.7 |
| 20260504014632 | 17 | 152 | 1.6 | 4.8 | 0.00 | 0.03 | 0.03 | 52 | 1005.6 |
| 20260504014130 | 17 | 90 | 1.6 | 4.8 | 0.00 | 0.03 | 0.03 | 52 | 1005.5 |
| 20260504013628 | 17 | 0 | 1.6 | 6.4 | 0.00 | 0.03 | 0.03 | 51 | 1005.5 |
| 20260504013126 | 17 | 0 | 1.6 | 8.0 | 0.00 | 0.03 | 0.03 | 50 | 1005.5 |
| 20260504012627 | 17 | 114 | 1.6 | 8.0 | 0.00 | 0.03 | 0.03 | 50 | 1005.3 |
| 20260504012127 | 17 | 324 | 1.6 | 8.0 | 0.00 | 0.03 | 0.03 | 50 | 1005.2 |
| 20260504011627 | 17 | 0 | 1.6 | 6.4 | 0.00 | 0.03 | 0.03 | 49 | 1005.2 |
| 20260504011127 | 18 | 0 | 1.6 | 6.4 | 0.00 | 0.03 | 0.03 | 49 | 1005.2 |
| 20260504010624 | 18 | 49 | 1.6 | 4.8 | 0.00 | 0.03 | 0.03 | 48 | 1005.2 |
| 20260504010124 | 18 | 0 | 0.0 | 3.2 | 0.00 | 0.03 | 0.03 | 47 | 1005.2 |
| 20260504005626 | 18 | 0 | 1.6 | 6.4 | 0.00 | 0.03 | 0.03 | 47 | 1005.2 |
| 20260504005124 | 18 | 0 | 1.6 | 6.4 | 0.00 | 0.03 | 0.03 | 46 | 1005.3 |
| 20260504004624 | 18 | 8 | 1.6 | 4.8 | 0.00 | 0.03 | 0.03 | 45 | 1005.3 |
| 20260504004122 | 19 | 136 | 1.6 | 4.8 | 0.00 | 0.03 | 0.03 | 45 | 1005.3 |
| 20260504003621 | 19 | 0 | 1.6 | 4.8 | 0.00 | 0.03 | 0.03 | 44 | 1005.3 |
| 20260504003118 | 19 | 82 | 1.6 | 6.4 | 0.00 | 0.03 | 0.03 | 44 | 1005.2 |
| 20260504002620 | 19 | 95 | 1.6 | 6.4 | 0.00 | 0.03 | 0.03 | 44 | 1005.2 |
| 20260504002118 | 19 | 101 | 1.6 | 4.8 | 0.00 | 0.03 | 0.03 | 43 | 1005.2 |
| 20260504001619 | 20 | 1 | 3.2 | 6.4 | 0.00 | 0.03 | 0.03 | 43 | 1005.2 |
| 20260504001118 | 20 | 161 | 3.2 | 9.7 | 0.00 | 0.03 | 0.03 | 42 | 1005.2 |
| 20260504000619 | 20 | 76 | 3.2 | 9.7 | 0.00 | 0.03 | 0.03 | 42 | 1005.2 |
| 20260504000119 | 20 | 95 | 3.2 | 8.0 | 0.00 | 0.03 | 0.03 | 42 | 1005.2 |
| 20260503235617 | 20 | 55 | 3.2 | 8.0 | 0.00 | 0.03 | 0.03 | 41 | 1005.2 |
| 20260503235113 | 20 | 208 | 3.2 | 8.0 | 0.00 | 0.03 | 0.03 | 41 | 1005.2 |
| 20260503234613 | 20 | 183 | 3.2 | 12.9 | 0.00 | 0.03 | 0.03 | 40 | 1005.2 |
| 20260503234113 | 20 | 345 | 3.2 | 12.9 | 0.00 | 0.03 | 0.03 | 40 | 1005.1 |
| 20260503233613 | 20 | 86 | 1.6 | 9.7 | 0.00 | 0.03 | 0.03 | 40 | 1005.2 |
| 20260503233345 | 21 | 94 | 1.6 | 6.4 | 0.00 | 0.03 | 0.03 | 39 | 1005.2 |
| 20260503232613 | 21 | 0 | 1.6 | 6.4 | 0.00 | 0.03 | 0.03 | 39 | 1005.2 |
| 20260503232115 | 21 | 125 | 1.6 | 8.0 | 0.00 | 0.03 | 0.03 | 39 | 1005.2 |
| 20260503231614 | 20 | 33 | 1.6 | 8.0 | 0.00 | 0.03 | 0.03 | 38 | 1005.3 |
| 20260503231113 | 20 | 62 | 1.6 | 8.0 | 0.00 | 0.03 | 0.03 | 38 | 1005.3 |
| 20260503230614 | 20 | 108 | 3.2 | 9.7 | 0.00 | 0.03 | 0.03 | 40 | 1005.5 |
| 20260503230114 | 20 | 90 | 3.2 | 9.7 | 0.00 | 0.03 | 0.03 | 39 | 1005.5 |
| 20260503225611 | 20 | 329 | 3.2 | 9.7 | 0.00 | 0.03 | 0.03 | 39 | 1005.7 |
| 20260503225113 | 20 | 18 | 3.2 | 9.7 | 0.00 | 0.03 | 0.03 | 39 | 1005.7 |
| 20260503224612 | 20 | 88 | 3.2 | 9.7 | 0.00 | 0.03 | 0.03 | 40 | 1005.8 |
| 20260503224111 | 20 | 113 | 3.2 | 9.7 | 0.00 | 0.03 | 0.03 | 40 | 1005.8 |
| 20260503223616 | 19 | 155 | 3.2 | 14.5 | 0.00 | 0.03 | 0.03 | 40 | 1005.9 |
| 20260503223612 | 20 | 306 | 3.2 | 9.7 | 0.00 | 0.03 | 0.03 | 39 | 1005.8 |
| 20260503222612 | 19 | 85 | 3.2 | 14.5 | 0.00 | 0.03 | 0.03 | 40 | 1006.0 |
| 20260503222112 | 19 | 313 | 4.8 | 11.3 | 0.00 | 0.03 | 0.03 | 40 | 1006.0 |
| 20260503221613 | 19 | 87 | 4.8 | 9.7 | 0.00 | 0.03 | 0.03 | 40 | 1006.1 |
| 20260503221111 | 19 | 99 | 4.8 | 9.7 | 0.00 | 0.03 | 0.03 | 39 | 1006.2 |
| 20260503220612 | 19 | 66 | 3.2 | 9.7 | 0.00 | 0.03 | 0.03 | 39 | 1006.3 |
| 20260503220112 | 19 | 286 | 3.2 | 9.7 | 0.00 | 0.03 | 0.03 | 39 | 1006.2 |
| 20260503215613 | 19 | 105 | 4.8 | 9.7 | 0.00 | 0.03 | 0.03 | 39 | 1006.3 |
| 20260503215112 | 19 | 88 | 3.2 | 9.7 | 0.00 | 0.03 | 0.03 | 38 | 1006.3 |
| 20260503214609 | 20 | 121 | 3.2 | 9.7 | 0.00 | 0.03 | 0.03 | 38 | 1006.4 |
| 20260503214110 | 19 | 166 | 3.2 | 11.3 | 0.00 | 0.03 | 0.03 | 39 | 1006.4 |
| 20260503213607 | 19 | 114 | 3.2 | 11.3 | 0.00 | 0.03 | 0.03 | 38 | 1006.4 |
| 20260503213111 | 18 | 146 | 4.8 | 12.9 | 0.00 | 0.03 | 0.03 | 39 | 1006.5 |
| 20260503212606 | 18 | 112 | 4.8 | 12.9 | 0.00 | 0.03 | 0.03 | 38 | 1006.5 |
| 20260503212106 | 18 | 33 | 4.8 | 12.9 | 0.00 | 0.03 | 0.03 | 38 | 1006.7 |
| 20260503211607 | 18 | 117 | 6.4 | 14.5 | 0.00 | 0.03 | 0.03 | 39 | 1006.6 |
| 20260503211338 | 18 | 168 | 6.4 | 14.5 | 0.00 | 0.03 | 0.03 | 39 | 1006.6 |
| 20260503210607 | 18 | 38 | 4.8 | 14.5 | 0.00 | 0.03 | 0.03 | 38 | 1006.8 |
| 20260503210107 | 18 | 107 | 4.8 | 14.5 | 0.00 | 0.03 | 0.03 | 38 | 1006.9 |
| 20260503205608 | 18 | 168 | 4.8 | 14.5 | 0.00 | 0.03 | 0.03 | 38 | 1007.0 |
| 20260503205107 | 18 | 68 | 4.8 | 14.5 | 0.00 | 0.03 | 0.03 | 39 | 1006.9 |
| 20260503204604 | 18 | 24 | 4.8 | 14.5 | 0.00 | 0.03 | 0.03 | 40 | 1007.1 |
| 20260503204333 | 17 | 120 | 4.8 | 12.9 | 0.00 | 0.03 | 0.03 | 41 | 1007.2 |
| 20260503203601 | 17 | 4 | 4.8 | 11.3 | 0.00 | 0.03 | 0.03 | 41 | 1007.3 |
| 20260503203057 | 17 | 124 | 4.8 | 12.9 | 0.00 | 0.03 | 0.03 | 42 | 1007.5 |
| 20260503202557 | 17 | 81 | 4.8 | 14.5 | 0.00 | 0.03 | 0.03 | 42 | 1007.6 |
| 20260503202059 | 17 | 145 | 6.4 | 16.1 | 0.00 | 0.03 | 0.03 | 42 | 1007.8 |
| 20260503201558 | 18 | 33 | 4.8 | 16.1 | 0.00 | 0.03 | 0.03 | 42 | 1007.8 |
| 20260503201058 | 18 | 121 | 4.8 | 11.3 | 0.00 | 0.03 | 0.03 | 43 | 1007.9 |
| 20260503200558 | 17 | 136 | 4.8 | 14.5 | 0.00 | 0.03 | 0.03 | 44 | 1007.9 |
| 20260503200057 | 17 | 1 | 4.8 | 14.5 | 0.00 | 0.03 | 0.03 | 46 | 1007.9 |
| 20260503195558 | 17 | 136 | 4.8 | 16.1 | 0.00 | 0.03 | 0.03 | 47 | 1008.2 |
| 20260503195058 | 17 | 139 | 3.2 | 16.1 | 0.00 | 0.03 | 0.03 | 49 | 1007.9 |
| 20260503194829 | 17 | 241 | 3.2 | 12.9 | 0.00 | 0.03 | 0.03 | 48 | 1008.2 |
| 20260503194056 | 16 | 346 | 3.2 | 8.0 | 0.00 | 0.03 | 0.03 | 48 | 1008.3 |
| 20260503193557 | 16 | 307 | 3.2 | 11.3 | 0.00 | 0.03 | 0.03 | 47 | 1008.3 |
| 20260503193056 | 16 | 336 | 4.8 | 14.5 | 0.00 | 0.03 | 0.03 | 47 | 1008.5 |
| 20260503192554 | 16 | 18 | 4.8 | 14.5 | 0.00 | 0.03 | 0.03 | 48 | 1008.5 |
| 20260503192055 | 16 | 10 | 4.8 | 11.3 | 0.00 | 0.03 | 0.03 | 48 | 1008.6 |
| 20260503191554 | 15 | 89 | 4.8 | 12.9 | 0.00 | 0.03 | 0.03 | 50 | 1008.7 |
| 20260503191325 | 15 | 320 | 4.8 | 14.5 | 0.00 | 0.03 | 0.03 | 50 | 1008.7 |
| 20260503190554 | 15 | 111 | 3.2 | 14.5 | 0.00 | 0.03 | 0.03 | 50 | 1009.0 |
| 20260503190056 | 15 | 242 | 4.8 | 11.3 | 0.00 | 0.03 | 0.03 | 51 | 1008.8 |
| 20260503185554 | 14 | 92 | 4.8 | 11.3 | 0.00 | 0.03 | 0.03 | 53 | 1008.9 |
| 20260503185054 | 14 | 46 | 4.8 | 11.3 | 0.00 | 0.03 | 0.03 | 54 | 1009.0 |
| 20260503184554 | 15 | 279 | 4.8 | 11.3 | 0.00 | 0.03 | 0.03 | 54 | 1009.1 |
| 20260503184055 | 15 | 87 | 3.2 | 9.7 | 0.00 | 0.03 | 0.03 | 55 | 1009.0 |
| 20260503183825 | 15 | 59 | 4.8 | 11.3 | 0.00 | 0.03 | 0.03 | 53 | 1009.2 |
| 20260503183051 | 14 | 356 | 4.8 | 11.3 | 0.00 | 0.03 | 0.03 | 55 | 1009.3 |
| 20260503182822 | 13 | 25 | 3.2 | 12.9 | 0.00 | 0.03 | 0.03 | 57 | 1009.4 |
| 20260503182050 | 13 | 109 | 4.8 | 12.9 | 0.00 | 0.03 | 0.03 | 57 | 1009.5 |
| 20260503181818 | 12 | 63 | 4.8 | 12.9 | 0.00 | 0.03 | 0.03 | 58 | 1009.7 |
| 20260503181650 | 12 | 356 | 4.8 | 14.5 | 0.00 | 0.03 | 0.03 | 59 | 1009.9 |
| 20260503180546 | 12 | 85 | 4.8 | 14.5 | 0.00 | 0.03 | 0.03 | 59 | 1010.2 |
| 20260503180046 | 12 | 94 | 4.8 | 12.9 | 0.00 | 0.03 | 0.03 | 60 | 1010.4 |
| 20260503175546 | 12 | 82 | 4.8 | 14.5 | 0.00 | 0.03 | 0.03 | 60 | 1010.6 |
| 20260503175047 | 12 | 90 | 4.8 | 14.5 | 0.00 | 0.03 | 0.03 | 60 | 1010.7 |
| 20260503174546 | 12 | 123 | 4.8 | 12.9 | 0.00 | 0.03 | 0.03 | 62 | 1010.8 |
| 20260503174047 | 12 | 228 | 4.8 | 9.7 | 0.00 | 0.03 | 0.03 | 62 | 1011.1 |
| 20260503173543 | 12 | 45 | 4.8 | 11.3 | 0.00 | 0.03 | 0.03 | 63 | 1011.3 |
| 20260503173044 | 12 | 7 | 4.8 | 12.9 | 0.00 | 0.03 | 0.03 | 65 | 1011.3 |
| 20260503172815 | 11 | 266 | 4.8 | 12.9 | 0.00 | 0.03 | 0.03 | 65 | 1011.4 |
| 20260503172043 | 11 | 358 | 4.8 | 12.9 | 0.03 | 0.03 | 0.03 | 66 | 1011.5 |
| 20260503171812 | 11 | 17 | 4.8 | 12.9 | 0.03 | 0.03 | 0.03 | 67 | 1011.7 |
| 20260503171312 | 11 | 284 | 4.8 | 12.9 | 0.03 | 0.03 | 0.03 | 67 | 1011.9 |
| 20260503170812 | 11 | 148 | 3.2 | 11.3 | 0.03 | 0.03 | 0.03 | 69 | 1011.9 |
| 20260503150532 | 12 | 97 | 3.2 | 9.7 | 0.00 | 0.00 | 0.00 | 55 | 1012.5 |
| 20260503131250 | 10 | 70 | 4.8 | 11.3 | 0.00 | 0.00 | 0.00 | 54 | 1013.3 |
| 20260503130518 | 10 | 122 | 4.8 | 12.9 | 0.00 | 0.00 | 0.00 | 55 | 1013.4 |
| 20260503130248 | 10 | 140 | 4.8 | 12.9 | 0.00 | 0.00 | 0.00 | 54 | 1013.4 |
| 20260503110511 | 8 | 110 | 4.8 | 11.3 | 0.00 | 0.00 | 0.00 | 55 | 1013.1 |
| 20260503090450 | 8 | 96 | 3.2 | 9.7 | 0.00 | 0.00 | 0.00 | 53 | 1013.6 |
| 20260503090222 | 8 | 66 | 3.2 | 8.0 | 0.00 | 0.00 | 0.00 | 53 | 1013.6 |
| 20260503081446 | 7 | 67 | 3.2 | 6.4 | 0.00 | 0.00 | 0.00 | 56 | 1013.8 |
| 20260503081218 | 7 | 3 | 3.2 | 4.8 | 0.00 | 0.00 | 0.00 | 56 | 1013.8 |
| 20260503080716 | 7 | 109 | 3.2 | 4.8 | 0.00 | 0.00 | 0.00 | 55 | 1013.9 |
| 20260503072941 | 7 | 310 | 3.2 | 4.8 | 0.00 | 0.00 | 0.00 | 54 | 1013.9 |
| 20260503072441 | 7 | 102 | 3.2 | 6.4 | 0.00 | 0.00 | 0.00 | 55 | 1014.0 |
| 20260503071940 | 7 | 160 | 3.2 | 6.4 | 0.00 | 0.00 | 0.00 | 54 | 1014.0 |
| 20260503071438 | 7 | 24 | 3.2 | 6.4 | 0.00 | 0.00 | 0.00 | 55 | 1014.0 |
| 20260503070938 | 7 | 75 | 3.2 | 4.8 | 0.00 | 0.00 | 0.00 | 55 | 1014.1 |
| 20260503070707 | 7 | 89 | 3.2 | 4.8 | 0.00 | 0.00 | 0.00 | 56 | 1014.1 |
| 20260503054929 | 6 | 99 | 1.6 | 4.8 | 0.00 | 0.00 | 0.00 | 64 | 1014.7 |
| 20260503054656 | 6 | 72 | 1.6 | 4.8 | 0.00 | 0.00 | 0.00 | 64 | 1014.8 |
| 20260503053924 | 6 | 74 | 1.6 | 4.8 | 0.00 | 0.00 | 0.00 | 64 | 1014.8 |
| 20260503053424 | 6 | 72 | 1.6 | 6.4 | 0.00 | 0.00 | 0.00 | 64 | 1014.8 |
| 20260503052922 | 6 | 36 | 1.6 | 6.4 | 0.00 | 0.00 | 0.00 | 64 | 1014.8 |
| 20260503052421 | 6 | 0 | 1.6 | 3.2 | 0.00 | 0.00 | 0.00 | 65 | 1014.9 |
| 20260503051918 | 6 | 78 | 1.6 | 3.2 | 0.00 | 0.00 | 0.00 | 66 | 1015.0 |
| 20260503051416 | 6 | 72 | 1.6 | 3.2 | 0.00 | 0.00 | 0.00 | 67 | 1015.0 |
| 20260503050916 | 6 | 106 | 1.6 | 3.2 | 0.00 | 0.00 | 0.00 | 68 | 1015.0 |
| 20260503050416 | 6 | 84 | 1.6 | 4.8 | 0.00 | 0.00 | 0.00 | 69 | 1015.1 |
| 20260503045917 | 6 | 76 | 1.6 | 4.8 | 0.00 | 0.00 | 0.00 | 70 | 1015.1 |
| 20260503045415 | 5 | 47 | 1.6 | 3.2 | 0.00 | 0.00 | 0.00 | 72 | 1015.1 |
| 20260503045146 | 5 | 90 | 1.6 | 3.2 | 0.00 | 0.00 | 0.00 | 74 | 1015.1 |
| 20260503044416 | 5 | 90 | 1.6 | 3.2 | 0.00 | 0.00 | 0.00 | 75 | 1015.1 |
| 20260503043916 | 5 | 78 | 1.6 | 3.2 | 0.00 | 0.00 | 0.00 | 76 | 1015.1 |
| 20260503043415 | 5 | 0 | 1.6 | 3.2 | 0.00 | 0.00 | 0.00 | 77 | 1015.2 |
| 20260503042916 | 5 | 85 | 1.6 | 3.2 | 0.00 | 0.00 | 0.00 | 78 | 1015.1 |
| 20260503042415 | 5 | 102 | 1.6 | 3.2 | 0.00 | 0.00 | 0.00 | 78 | 1015.1 |
| 20260503041913 | 5 | 19 | 1.6 | 3.2 | 0.00 | 0.00 | 0.00 | 79 | 1015.1 |
| 20260503041414 | 5 | 78 | 1.6 | 3.2 | 0.00 | 0.00 | 0.00 | 80 | 1015.2 |
| 20260503040914 | 5 | 0 | 1.6 | 3.2 | 0.00 | 0.00 | 0.00 | 80 | 1015.2 |
| 20260503040641 | 5 | 91 | 1.6 | 3.2 | 0.00 | 0.00 | 0.00 | 81 | 1015.3 |
| 20260503035910 | 5 | 93 | 1.6 | 3.2 | 0.00 | 0.00 | 0.00 | 82 | 1015.3 |
| 20260503035408 | 5 | 0 | 0.0 | 3.2 | 0.00 | 0.00 | 0.00 | 82 | 1015.3 |
| 20260503034907 | 5 | 79 | 0.0 | 3.2 | 0.00 | 0.00 | 0.00 | 82 | 1015.3 |
| 20260503034408 | 5 | 77 | 0.0 | 3.2 | 0.00 | 0.00 | 0.00 | 82 | 1015.3 |
| 20260503033909 | 5 | 0 | 0.0 | 3.2 | 0.00 | 0.00 | 0.00 | 82 | 1015.3 |
| 20260503033407 | 5 | 0 | 0.0 | 3.2 | 0.00 | 0.00 | 0.00 | 82 | 1015.4 |
| 20260503032908 | 5 | 0 | 0.0 | 3.2 | 0.00 | 0.00 | 0.00 | 82 | 1015.4 |
| 20260503032409 | 5 | 0 | 0.0 | 3.2 | 0.00 | 0.00 | 0.00 | 83 | 1015.4 |
| 20260503031908 | 5 | 93 | 0.0 | 3.2 | 0.00 | 0.00 | 0.00 | 83 | 1015.4 |
| 20260503031408 | 5 | 0 | 1.6 | 3.2 | 0.00 | 0.00 | 0.00 | 83 | 1015.5 |
| 20260503030905 | 5 | 70 | 1.6 | 3.2 | 0.00 | 0.00 | 0.00 | 83 | 1015.5 |
| 20260503030636 | 5 | 81 | 1.6 | 3.2 | 0.00 | 0.00 | 0.00 | 83 | 1015.5 |
| 20260503025902 | 6 | 0 | 1.6 | 3.2 | 0.00 | 0.00 | 0.00 | 83 | 1015.6 |
| 20260503025359 | 6 | 89 | 1.6 | 3.2 | 0.00 | 0.00 | 0.00 | 83 | 1015.6 |